This is the latest recevied weather packets stored in our database for station/object OE2ATN. If no packets are shown the sender has not sent any weather packets the latest 1 day(s).
| Time | Temp. | Humidity | Pressure | Rain* | Wind** | Luminosity | Snow |
|---|---|---|---|---|---|---|---|
| 1777997403 | 18.89° C | 45% | 1014.7 hPa | 0 mm | 2.68 m/s, 130° | - | - |
| 1777997101 | 18.89° C | 46% | 1014.8 hPa | 0 mm | 1.79 m/s, 124° | - | - |
| 1777996801 | 18.89° C | 46% | 1014.9 hPa | 0 mm | 2.68 m/s, 125° | - | - |
| 1777996501 | 18.33° C | 48% | 1014.9 hPa | 0 mm | 2.68 m/s, 93° | - | - |
| 1777996201 | 18.89° C | 49% | 1014.9 hPa | 0 mm | 2.68 m/s, 90° | - | - |
| 1777995902 | 18.89° C | 48% | 1014.8 hPa | 0 mm | 2.68 m/s, 113° | - | - |
| 1777995601 | 18.89° C | 48% | 1014.8 hPa | 0 mm | 2.24 m/s, 106° | - | - |
| 1777995302 | 18.89° C | 45% | 1014.8 hPa | 0 mm | 1.79 m/s, 131° | - | - |
| 1777995002 | 18.89° C | 47% | 1014.8 hPa | 0 mm | 2.24 m/s, 113° | - | - |
| 1777994701 | 18.89° C | 46% | 1014.9 hPa | 0 mm | 1.79 m/s, 71° | - | - |
| 1777994401 | 18.89° C | 44% | 1014.9 hPa | 0 mm | 0 m/s | - | - |
| 1777994100 | 18.89° C | 44% | 1015 hPa | 0 mm | 0 m/s | - | - |
| 1777993800 | 18.89° C | 42% | 1014.9 hPa | 0 mm | 0.45 m/s, 6° | - | - |
| 1777993501 | 18.89° C | 43% | 1014.9 hPa | 0 mm | 1.79 m/s, 282° | - | - |
| 1777993201 | 18.89° C | 43% | 1014.9 hPa | 0 mm | 2.24 m/s, 255° | - | - |
| 1777992900 | 19.44° C | 44% | 1014.9 hPa | 0 mm | 1.34 m/s, 288° | - | - |
| 1777992600 | 19.44° C | 42% | 1014.8 hPa | 0 mm | 0.45 m/s, 286° | - | - |
| 1777992300 | 19.44° C | 40% | 1014.8 hPa | 0 mm | 0.45 m/s, 135° | - | - |
| 1777992000 | 19.44° C | 42% | 1014.8 hPa | 0 mm | 2.68 m/s, 228° | - | - |
| 1777991699 | 19.44° C | 43% | 1014.6 hPa | 0 mm | 0.89 m/s, 276° | - | - |
| 1777991400 | 19.44° C | 44% | 1014.5 hPa | 0 mm | 0.45 m/s, 134° | - | - |
| 1777991100 | 20° C | 44% | 1014.4 hPa | 0 mm | 0.89 m/s, 159° | - | - |
| 1777990800 | 20° C | 42% | 1014.4 hPa | 0 mm | 0.89 m/s, 183° | - | - |
| 1777990499 | 20° C | 44% | 1014.3 hPa | 0 mm | 0 m/s | - | - |
| 1777990200 | 20° C | 44% | 1014.3 hPa | 0 mm | 0.89 m/s, 159° | - | - |
* Rain latest hour (hover to see other rain measurements)
** Current wind speed in m/s (hover to see current wind gust speed)